Location: Elaina
(34.1445°N, 106.7742°W)
Time: 13:04:53
(UTC+00:00)

NOSS 3-1 (C) - Pass Details

Date: 23 March 2026
Orbit: 618 x 1583 km, 63.4° (Epoch: 10 January)

Event Time Altitude Azimuth Distance (km) Brightness Sun altitude
Rises 02:23:01 0° 196° (SSW) 2,873 6.1 -13.7°
Reaches altitude 10° 02:25:15 10° 190° (S) 1,980 5.1 -14.1°
Maximum altitude 02:29:28 49° 115° (ESE) 842 2.8 -15.0°
Drops below altitude 10° 02:34:11 10° 41° (NE) 2,220 5.1 -15.9°
Sets 02:36:48 0° 36° (NE) 3,264 6.0 -16.5°
